This is the latest recevied weather packets stored in our database for station/object 7L2IWN-13. If no packets are shown the sender has not sent any weather packets the latest 10 day(s).
| Time | Temp. | Humidity | Pressure | Rain* | Wind** | Luminosity | Snow |
|---|---|---|---|---|---|---|---|
| 1777417822 | 14.44° C | 95% | 1009.8 hPa | 0 mm | - | - | - |
| 1777417101 | 13.89° C | 95% | 1010 hPa | 0 mm | - | - | - |
| 1777416383 | 13.89° C | 95% | 1010.1 hPa | 0 mm | - | - | - |
| 1777415662 | 14.44° C | 95% | 1009.9 hPa | 0 mm | - | - | - |
| 1777414940 | 13.89° C | 95% | 1009.7 hPa | 0 mm | - | - | - |
| 1777414221 | 13.89° C | 95% | 1009.6 hPa | 0 mm | - | - | - |
| 1777413501 | 13.89° C | 95% | 1009.9 hPa | 0 mm | - | - | - |
| 1777412781 | 13.33° C | 96% | 1009.9 hPa | 0 mm | - | - | - |
| 1777412061 | 13.33° C | 97% | 1009.6 hPa | 0 mm | - | - | - |
| 1777411340 | 13.33° C | 97% | 1009.7 hPa | 0 mm | - | - | - |
| 1777410620 | 13.33° C | 98% | 1009.6 hPa | 0 mm | - | - | - |
| 1777409901 | 13.33° C | 97% | 1009.6 hPa | 0 mm | - | - | - |
| 1777409181 | 13.33° C | 96% | 1009.3 hPa | 0 mm | - | - | - |
| 1777408460 | 12.78° C | 96% | 1009.1 hPa | 0 mm | - | - | - |
| 1777407740 | 12.78° C | 96% | 1009 hPa | 0 mm | - | - | - |
| 1777407019 | 12.78° C | 96% | 1008.8 hPa | 0 mm | - | - | - |
| 1777406301 | 12.78° C | 96% | 1008.6 hPa | 0 mm | - | - | - |
| 1777405581 | 12.78° C | 96% | 1008.2 hPa | 0 mm | - | - | - |
| 1777404860 | 12.78° C | 95% | 1008.5 hPa | 0 mm | - | - | - |
| 1777404140 | 12.78° C | 95% | 1008.7 hPa | 0 mm | - | - | - |
| 1777403419 | 12.78° C | 96% | 1008.6 hPa | 0 mm | - | - | - |
| 1777402701 | 13.33° C | 94% | 1008.2 hPa | 0 mm | - | - | - |
| 1777401981 | 12.78° C | 95% | 1008.5 hPa | 0 mm | - | - | - |
| 1777401261 | 12.78° C | 96% | 1008.3 hPa | 0 mm | - | - | - |
| 1777400541 | 12.78° C | 96% | 1008.3 hPa | 0 mm | - | - | - |
* Rain latest hour (hover to see other rain measurements)
** Current wind speed in m/s (hover to see current wind gust speed)